Volver al catálogo

STARLINK-36996

ActivoComunicacionesVLEO
NORAD 68064·PAYLOAD·🇺🇸 United States

Lanzado Mar 2, 2026 desde Vandenberg Space Force Base

Loading…

Próximos Pases (próximas 24 horas)

TLE

ActualizadoSource: CelesTrak SupGP

Época: Sep 14, 2026, 23:06 UTC

1 68064C 26041AA  26257.96298611  .00024812  00000+0  73351-3 0  2576
2 68064  53.1582 245.2767 0001306  95.3293 260.2689 15.34359921    10

Sigue STARLINK-36996 en tiempo real con AllMySat

Download on the App Store